Voltar ao catálogo

CZ-6A DEB

AtivoPO
NORAD 61376·DEBRIS·🇨🇳 China

Lançado Aug 6, 2024 de Taiyuan Satellite Launch Center

Loading…

Próximas Passagens (próximas 24 horas)

TLE

AtualizadoSource: Space-Track

Época: Sep 13, 2026, 11:59 UTC

1 61376U 24140WR  26256.49984619  .00000800  00000-0  37329-3 0  9990
2 61376  88.9980 265.1351 0054747 283.2859  76.2228 14.18756372104796

Acompanhe CZ-6A DEB em tempo real com AllMySat

Download on the App Store